TimePDT,TemperatureF,Dew PointF,Humidity,Sea Level PressureIn,VisibilityMPH,Wind Direction,Wind SpeedMPH,Gust SpeedMPH,PrecipitationIn,Events,Conditions,WindDirDegrees,DateUTC
12:06 AM,37.4,15.8,41,30.23,10.0,ENE,3.5,-,N/A,,Clear,60,2012-10-07 07:06:00
12:17 AM,35.6,21.2,56,30.23,10.0,East,3.5,-,N/A,,Clear,90,2012-10-07 07:17:00
12:55 AM,43.0,19.9,40,30.21,10.0,East,3.5,-,0.00,,Clear,80,2012-10-07 07:55:00
1:55 AM,43.3,21.9,43,30.20,10.0,Calm,Calm,-,N/A,,Clear,0,2012-10-07 08:55:00
2:55 AM,40.8,22.1,47,30.20,10.0,Calm,Calm,-,N/A,,Clear,0,2012-10-07 09:55:00
3:23 AM,37.4,23.0,56,30.20,10.0,Calm,Calm,-,N/A,,Clear,0,2012-10-07 10:23:00
3:43 AM,37.4,21.2,52,30.20,10.0,Calm,Calm,-,N/A,,Clear,0,2012-10-07 10:43:00
3:55 AM,36.1,22.1,57,30.20,10.0,Calm,Calm,-,0.00,,Clear,0,2012-10-07 10:55:00
3:57 AM,35.6,23.0,60,30.20,10.0,Calm,Calm,-,N/A,,Clear,0,2012-10-07 10:57:00
4:21 AM,33.8,21.2,60,30.21,10.0,North,3.5,-,N/A,,Clear,360,2012-10-07 11:21:00
4:55 AM,32.9,21.2,62,30.20,10.0,Calm,Calm,-,0.00,,Clear,0,2012-10-07 11:55:00
5:55 AM,34.7,25.0,68,30.19,10.0,East,3.5,-,N/A,,Clear,90,2012-10-07 12:55:00
6:55 AM,38.1,26.4,63,30.18,10.0,SE,3.5,-,N/A,,Clear,140,2012-10-07 13:55:00
7:55 AM,37.9,25.7,61,30.20,10.0,NNE,5.8,-,N/A,,Clear,30,2012-10-07 14:55:00
8:15 AM,39.2,24.8,56,30.20,10.0,NE,3.5,-,N/A,,Clear,50,2012-10-07 15:15:00
8:32 AM,41.0,24.8,53,30.20,10.0,ENE,4.6,-,N/A,,Clear,60,2012-10-07 15:32:00
8:55 AM,43.0,26.2,52,30.19,10.0,East,3.5,-,0.00,,Clear,80,2012-10-07 15:55:00
9:55 AM,50.2,25.5,38,30.19,10.0,East,3.5,-,N/A,,Clear,90,2012-10-07 16:55:00
10:55 AM,57.0,22.6,26,30.17,10.0,Calm,Calm,-,N/A,,Clear,0,2012-10-07 17:55:00
11:55 AM,60.3,22.6,24,30.15,10.0,WSW,3.5,-,N/A,,Clear,250,2012-10-07 18:55:00
12:55 PM,64.2,21.4,19,30.12,10.0,SW,6.9,-,N/A,,Clear,220,2012-10-07 19:55:00
1:55 PM,66.0,21.7,19,30.09,10.0,WSW,8.1,-,N/A,,Clear,250,2012-10-07 20:55:00
2:55 PM,66.9,22.5,19,30.08,10.0,WSW,9.2,-,N/A,,Clear,240,2012-10-07 21:55:00
3:55 PM,67.3,22.8,19,30.05,10.0,SW,6.9,-,N/A,,Clear,230,2012-10-07 22:55:00
4:55 PM,66.2,23.4,20,30.04,10.0,SW,8.1,-,N/A,,Clear,230,2012-10-07 23:55:00
5:55 PM,61.9,24.3,24,30.03,10.0,SW,6.9,-,N/A,,Clear,230,2012-10-08 00:55:00
6:55 PM,55.9,23.5,29,30.04,10.0,WSW,3.5,-,N/A,,Clear,250,2012-10-08 01:55:00
7:55 PM,53.6,23.2,31,30.03,10.0,SW,3.5,-,N/A,,Clear,230,2012-10-08 02:55:00
8:55 PM,50.7,22.6,33,30.03,10.0,Calm,Calm,-,N/A,,Clear,0,2012-10-08 03:55:00
9:55 PM,50.2,22.6,34,30.01,10.0,WSW,5.8,-,N/A,,Clear,250,2012-10-08 04:55:00
10:55 PM,47.3,23.2,39,30.00,10.0,WSW,4.6,-,N/A,,Clear,250,2012-10-08 05:55:00
11:55 PM,47.5,23.4,39,29.99,10.0,WSW,3.5,-,N/A,,Clear,250,2012-10-08 06:55:00